[[{"header":{"parameterUnit":"m.s-1","parameterCategory":1,"la1":30.2991,"la2":30.254,"lo1":-89.0895,"lo2":-89.0444,"dy":0.0017,"dx":0.0017,"nx":28,"ny":28,"refTime":"2023-10-29T03:00:00:Z","depth":0,"parameterNumber":2,"parameterNumberName":"U-component_of_WINDS"},"data":[0,0,0,0,0,0,0,0,0,0,0,0,0,0,0,0,0,0,0,0,0,0,0,0,0,0,0,0,0,0,0,0,0,0,0,0,0,0,0,0,0,0,0,0,0,0,0,0,0,0,0,0,0,0,0,0,0,0,-3.464,-3.4641,0,-3.4647,-3.4648,-3.4648,-3.4575,-3.4573,-3.4571,-3.4569,-3.4575,-3.4577,-3.4579,0,0,0,0,0,0,0,0,0,0,0,0,0,-3.4565,-3.4567,-3.464,-3.4641,-3.4641,-3.4647,-3.4648,-3.4648,-3.4575,-3.4573,-3.457,-3.4568,-3.4575,-3.4577,-3.4579,0,0,0,0,0,0,0,0,0,0,0,0,0,-3.4588,-3.4568,-3.464,-3.4605,-3.4602,-3.4647,-3.4648,-3.4648,-3.4576,-3.4573,-3.457,-3.4567,-3.4574,-3.4577,-3.458,-3.4659,0,0,-3.4589,-3.459,0,0,0,0,0,0,0,0,-3.4587,-3.4591,-3.461,-3.4608,-3.4604,-3.4607,-3.4623,-3.4651,-3.4576,-3.4586,-3.4569,-3.4565,-3.4588,-3.459,-3.4598,-3.4659,-3.4659,-3.4589,-3.4591,-3.4593,-3.4593,0,0,0,0,0,0,0,-3.4585,-3.459,-3.4643,-3.4611,-3.4607,-3.459,-3.4589,-3.4628,-3.4604,-3.4585,-3.4579,-3.4581,-3.4586,-3.4595,-3.4597,-3.4659,-3.4589,-3.4592,-3.4594,-3.4595,-3.4787,-3.479,0,0,0,0,0,0,-3.4588,-3.4589,-3.4643,-3.4643,-3.4588,-3.4593,-3.4593,-3.4609,-3.4603,-3.4599,-3.4584,-3.4578,-3.4591,-3.4594,-3.4597,-3.4689,-3.4593,-3.4595,-3.4597,-3.4784,-3.4788,-3.4792,0,0,0,0,0,0,-3.4587,-3.4594,-3.4643,-3.4615,-3.462,-3.4598,-3.4617,-3.4611,-3.462,-3.4602,-3.4598,-3.4597,-3.4589,-3.4593,-3.4644,-3.4688,-3.4597,-3.46,-3.478,-3.4785,-3.479,-3.4874,0,0,0,0,0,0,-3.4585,-3.4594,-3.4623,-3.4616,-3.4622,-3.4689,-3.4619,-3.4613,-3.4625,-3.4618,-3.4614,-3.461,-3.4587,-3.464,-3.4647,-3.4691,-3.4602,-3.4776,-3.4782,-3.4788,-3.4867,-3.4881,-3.4893,0,0,0,0,0,-3.4583,-3.4646,-3.4625,-3.4632,-3.4658,-3.4692,-3.4695,-3.4667,-3.4629,-3.4659,-3.4648,-3.4611,-3.4683,-3.4646,-3.4654,-3.4699,-3.4773,-3.4781,-3.4788,-3.4861,-3.4878,-3.4893,0,0,0,0,0,0,-3.4657,-3.4644,-3.4621,-3.4684,-3.469,-3.468,-3.4715,-3.4686,-3.4702,-3.4694,-3.4659,-3.4659,-3.4716,-3.4713,-3.4672,-3.4776,-3.4722,-3.4731,-3.4775,-3.4791,-3.4804,-3.4802,-3.4605,0,0,0,0,0,-3.4682,-3.4711,-3.4698,-3.4754,-3.4759,-3.4737,-3.4751,-3.4729,-3.4734,-3.4736,-3.4729,-3.4735,-3.4759,-3.4775,-3.4796,-3.4868,-3.4866,-3.4903,-3.4916,-3.4927,-3.4934,-3.4972,-3.4988,-3.4816,-3.4816,-3.4816,0,0,-3.4731,-3.4727,-3.4747,-3.477,-3.4771,-3.4802,-3.4739,-3.4775,-3.4797,-3.4741,-3.4788,-3.4784,-3.4789,-3.4851,-3.4877,-3.485,-3.4982,-3.4936,-3.4945,-3.4946,-3.4981,-3.4998,-3.5012,-3.4821,-3.482,-3.4819,0,0,-3.4836,-3.4837,-3.4884,-3.4888,-3.4893,-3.4879,-3.4891,-3.4886,-3.4881,-3.4929,-3.4888,-3.4915,-3.4957,-3.4962,-3.497,-3.5082,-3.5048,-3.509,-3.5157,-3.5194,-3.5208,-3.5219,-3.5258,-3.5273,-3.5098,-3.5098,-3.5098,0,-3.4896,-3.4941,-3.4912,-3.4951,-3.4962,-3.4914,-3.4962,-3.4968,-3.4979,-3.4988,-3.4958,-3.5011,-3.5011,-3.5073,-3.51,-3.5109,-3.5121,-3.5088,-3.5208,-3.522,-3.523,-3.5267,-3.5282,-3.5103,-3.5103,-3.5102,-3.5102,0,-3.5015,-3.5047,-3.5085,-3.5098,-3.5114,-3.5157,-3.5135,-3.5155,-3.5133,-3.5123,-3.5173,-3.5172,-3.5192,-3.5206,-3.5185,-3.5266,-3.5249,-3.5214,-3.5158,-3.5252,-3.5286,-3.53,-3.511,-3.5109,-3.5107,-3.5106,0,0,-3.5163,-3.5162,-3.5177,-3.5182,-3.5186,-3.521,-3.5252,-3.5273,-3.529,-3.5301,-3.5335,-3.5374,-3.5343,-3.5352,-3.5331,-3.5365,-3.5453,-3.5326,-3.5325,-3.5348,-3.5542,-3.5567,-3.5583,-3.5432,-3.5435,-3.5437,-3.5541,0,-3.5265,-3.5335,-3.5312,-3.5384,-3.5414,-3.5371,-3.5408,-3.5415,-3.5407,-3.5431,-3.5423,-3.545,-3.5407,-3.5413,-3.5444,-3.5435,-3.5491,-3.5428,-3.5462,-3.5464,-3.546,-3.5601,-3.5626,-3.5725,-3.5555,-3.5557,-3.5558,0,-3.5391,-3.5408,-3.5483,-3.5483,-3.5494,-3.5528,-3.5546,-3.557,-3.5577,-3.5569,-3.5582,-3.5555,-3.5597,-3.5544,-3.5602,-3.5559,-3.5573,-3.5571,-3.5575,-3.5574,-3.5515,-3.5603,-3.5756,-3.577,-3.5579,-3.5577,-3.5576,0,-3.549,-3.5532,-3.5582,-3.5589,-3.559,-3.5615,-3.5617,-3.5621,-3.5636,-3.5653,-3.5662,-3.5683,-3.5694,-3.5712,-3.5692,-3.5656,-3.5752,-3.5698,-3.5746,-3.5747,-3.5766,-3.5764,-3.5921,-3.5779,-3.5779,-3.5779,-3.5778,0,-3.5604,-3.5651,-3.5627,-3.5657,-3.571,-3.5684,-3.5737,-3.5734,-3.5739,-3.5769,-3.5735,-3.5763,-3.5736,-3.5763,-3.5749,-3.5798,-3.5804,-3.5798,-3.5793,-3.58,-3.5801,-3.5806,-3.5798,-3.5782,-3.5782,-3.5781,-3.578,0,-3.5721,-3.5707,-3.5759,-3.5758,-3.5759,-3.5797,-3.5796,-3.5825,-3.5816,-3.5855,-3.5862,-3.5849,-3.5878,-3.5861,-3.5892,-3.5882,-3.5946,-3.5933,-3.5944,-3.5939,-3.5988,-3.5983,-3.6152,-3.6173,-3.6019,-3.6021,-3.6022,0,-3.5794,-3.5829,-3.5832,-3.585,-3.5855,-3.5884,-3.5899,-3.5877,-3.5895,-3.5907,-3.5935,-3.5962,-3.5982,-3.6032,-3.6025,-3.6049,-3.6035,-3.6093,-3.6038,-3.6044,-3.6034,-3.6031,-3.6034,-3.6102,-3.6104,-3.6106,-3.6107,0,-3.5923,-3.5915,-3.5939,-3.5961,-3.5981,-3.5997,-3.601,-3.6027,-3.6005,-3.6027,-3.6057,-3.6074,-3.6106,-3.6133,-3.6154,-3.6156,-3.6128,-3.6125,-3.6137,-3.6143,-3.6147,-3.6144,-3.5971,-3.612,-3.6119,-3.6118,-3.6117,-3.6117,-3.6019,-3.6049,-3.6056,-3.6084,-3.6093,-3.6107,-3.6134,-3.613,-3.6155,-3.618,-3.6166,-3.6202,-3.621,-3.6236,-3.6242,-3.627,-3.6247,-3.6265,-3.6269,-3.6273,-3.6279,-3.6145,-3.6274,-3.6274,-3.6274,-3.6273,-3.6273,0,-3.6145,-3.6149,-3.6175,-3.6195,-3.6218,-3.6192,-3.6206,-3.6226,-3.6259,-3.627,-3.6291,-3.6327,-3.6355,-3.6351,-3.6377,-3.64,-3.6388,-3.6407,-3.6404,-3.6405,-3.6299,-3.6285,-3.6417,-3.6417,-3.6416,-3.6416,-3.6416,-3.6416,-3.6213,-3.6262,-3.6256,-3.631,-3.6313,-3.6349,-3.6359,-3.6372,-3.6381,-3.6423,-3.6446,-3.6444,-3.6449,-3.6475,-3.65,-3.6498,-3.6508,-3.6532,-3.6525,-3.6426,-3.6412,-3.6398,-3.6385,-3.6535,-3.6535,-3.6628,-3.6629,-3.663]},{"header":{"parameterUnit":"m.s-1","parameterCategory":1,"la1":30.2991,"la2":30.254,"lo1":-89.0895,"lo2":-89.0444,"dy":0.0017,"dx":0.0017,"nx":28,"ny":28,"refTime":"2023-10-29T03:00:00:Z","depth":0,"parameterNumber":3,"parameterNumberName":"V-component_of_WINDS"},"data":[0,0,0,0,0,0,0,0,0,0,0,0,0,0,0,0,0,0,0,0,0,0,0,0,0,0,0,0,0,0,0,0,0,0,0,0,0,0,0,0,0,0,0,0,0,0,0,0,0,0,0,0,0,0,0,0,0,0,1.9984,1.9985,0,2.005,2.0051,2.0051,2.002,2.0018,2.0017,2.0015,2.0082,2.0085,2.0088,0,0,0,0,0,0,0,0,0,0,0,0,0,1.9833,1.9836,1.9984,1.9985,1.9986,2.005,2.0051,2.0052,2.002,2.0018,2.0016,2.0014,2.008,2.0084,2.0088,0,0,0,0,0,0,0,0,0,0,0,0,0,1.9899,1.9837,1.9984,1.9978,1.9978,2.005,2.0051,2.0052,2.0021,2.0018,2.0016,2.0013,2.0079,2.0084,2.0089,2.017,0,0,2.0104,2.0106,0,0,0,0,0,0,0,0,1.9895,1.9904,1.9978,1.9978,1.9979,2.0024,2.0022,2.0092,2.0021,2.0004,2.0015,2.0012,2.0064,2.007,2.0088,2.0173,2.0176,2.0105,2.0108,2.011,2.0111,0,0,0,0,0,0,0,1.9891,1.9901,2.001,1.9979,1.9979,1.9972,1.9979,2.0035,2.0048,2.0006,2.0003,2.0012,2.0064,2.0084,2.009,2.0177,2.0105,2.0109,2.0112,2.0114,2.0337,2.034,0,0,0,0,0,0,1.9886,1.9898,2.0008,2.0012,1.993,1.9977,1.9985,2.0012,2.0047,2.005,2.0014,2.001,2.0076,2.0084,2.0092,2.0192,2.011,2.0115,2.0117,2.0334,2.0337,2.0341,0,0,0,0,0,0,1.9883,1.9896,2.0005,1.9955,1.9968,1.9983,2.0014,2.0015,2.0034,2.0053,2.0055,2.0031,2.0075,2.0085,2.0152,2.0194,2.0117,2.0121,2.0331,2.0335,2.0339,2.0391,0,0,0,0,0,0,1.9879,1.9895,1.9925,1.9955,1.9971,2.0064,2.0016,2.0018,2.0043,2.0038,2.007,2.0073,2.0073,2.0145,2.0157,2.0199,2.0125,2.0327,2.0333,2.0338,2.0386,2.0397,2.0406,0,0,0,0,0,1.9874,1.9936,1.9927,1.9941,2.0009,2.0066,2.0075,2.0074,2.0046,2.0077,2.0091,2.0072,2.0187,2.0152,2.0165,2.021,2.0324,2.0331,2.0337,2.0381,2.0394,2.0406,0,0,0,0,0,0,1.9909,1.994,1.993,2.0004,2.0033,2.0061,2.0099,2.0088,2.0125,2.0119,2.0117,2.0124,2.0195,2.0209,2.0169,2.0293,2.0252,2.0261,2.028,2.0293,2.0303,2.0298,2.0129,0,0,0,0,0,1.9926,1.997,1.9994,2.0058,2.0073,2.0084,2.0109,2.0107,2.0136,2.0148,2.0165,2.0195,2.0238,2.0266,2.0307,2.0388,2.0396,2.0426,2.0436,2.0444,2.0452,2.05,2.0514,2.0362,2.0362,2.0362,0,0,1.9961,1.9983,2.001,2.0066,2.0087,2.0134,2.0094,2.0144,2.0179,2.0155,2.022,2.0235,2.0268,2.0344,2.0378,2.0358,2.0497,2.0453,2.0459,2.0463,2.0508,2.0522,2.0535,2.0367,2.0366,2.0365,0,0,2.0047,2.0068,2.0124,2.0148,2.0183,2.0191,2.0205,2.0235,2.0245,2.031,2.0295,2.0337,2.041,2.0436,2.0458,2.056,2.0545,2.0574,2.0627,2.0673,2.0685,2.0695,2.0734,2.0747,2.0582,2.0582,2.0582,0,2.0086,2.0155,2.0155,2.0208,2.0234,2.0216,2.0275,2.0298,2.0343,2.0362,2.034,2.0435,2.0455,2.0538,2.0564,2.0582,2.0599,2.0569,2.0683,2.0694,2.0704,2.074,2.0755,2.0585,2.0585,2.0585,2.0584,0,2.0202,2.025,2.0292,2.0339,2.037,2.0425,2.0434,2.0466,2.0462,2.0473,2.0542,2.0567,2.0615,2.0634,2.063,2.0718,2.0705,2.0683,2.0642,2.0721,2.0756,2.077,2.059,2.0589,2.0588,2.0587,0,0,2.0309,2.0359,2.0374,2.0397,2.0436,2.0474,2.053,2.0578,2.0606,2.0639,2.0687,2.0753,2.0734,2.076,2.0759,2.0799,2.0882,2.0773,2.0774,2.0794,2.0984,2.1,2.1016,2.0873,2.0876,2.0878,2.0981,0,2.04,2.0498,2.0502,2.0592,2.0639,2.0625,2.0675,2.0705,2.0718,2.076,2.0774,2.0821,2.0792,2.0808,2.0847,2.0864,2.092,2.0856,2.0919,2.0921,2.0911,2.1034,2.1051,2.1147,2.0995,2.0997,2.0999,0,2.0518,2.0558,2.0653,2.069,2.0709,2.0753,2.0799,2.0839,2.0875,2.0881,2.0913,2.0907,2.0967,2.0925,2.1007,2.0964,2.099,2.1003,2.1007,2.1012,2.0965,2.1044,2.1178,2.1192,2.1019,2.1018,2.1016,0,2.059,2.0667,2.0735,2.0754,2.0798,2.083,2.085,2.0883,2.0912,2.0953,2.0972,2.1019,2.1045,2.1081,2.109,2.1058,2.1174,2.1131,2.1182,2.1182,2.1206,2.1205,2.1347,2.1223,2.1222,2.1222,2.1222,0,2.0691,2.075,2.0768,2.0809,2.0877,2.0882,2.0948,2.0966,2.0996,2.1042,2.1033,2.1077,2.1085,2.1131,2.1138,2.1207,2.1218,2.1226,2.1228,2.1228,2.1227,2.1245,2.1238,2.1226,2.1225,2.1224,2.1224,0,2.0781,2.0795,2.0869,2.0906,2.0917,2.0965,2.0997,2.1038,2.1051,2.111,2.1124,2.1145,2.1199,2.1212,2.1275,2.128,2.1363,2.1357,2.1351,2.1351,2.1401,2.1397,2.156,2.1583,2.1443,2.1444,2.1445,0,2.0844,2.089,2.0933,2.0964,2.0986,2.1035,2.1067,2.1075,2.1108,2.1154,2.1191,2.1244,2.1287,2.1375,2.1396,2.1446,2.1442,2.1496,2.1449,2.1449,2.1445,2.1442,2.1448,2.1504,2.1506,2.1507,2.1508,0,2.0956,2.0963,2.1008,2.1058,2.1096,2.1135,2.1172,2.1198,2.1211,2.1249,2.1305,2.1339,2.1406,2.146,2.1511,2.1532,2.1524,2.1523,2.1538,2.1538,2.1534,2.1539,2.1376,2.1519,2.1518,2.1517,2.1516,2.1516,2.1036,2.1078,2.1116,2.1168,2.1198,2.1234,2.1275,2.1296,2.1343,2.1398,2.1401,2.1463,2.1501,2.1569,2.1594,2.1643,2.1626,2.1647,2.1652,2.1658,2.1663,2.1526,2.1652,2.1652,2.1651,2.1651,2.1651,0,2.1149,2.1174,2.1222,2.1276,2.1318,2.1308,2.135,2.1386,2.144,2.1477,2.1521,2.1588,2.1641,2.1669,2.1722,2.1757,2.1754,2.1771,2.1768,2.1774,2.1674,2.1657,2.1772,2.1772,2.1772,2.1772,2.1772,2.1772,2.1213,2.1284,2.1295,2.1382,2.1406,2.1468,2.1493,2.1527,2.1557,2.1632,2.1677,2.1695,2.1729,2.1786,2.1836,2.1843,2.1863,2.1882,2.1887,2.1793,2.1781,2.1769,2.1753,2.1886,2.1887,2.1983,2.1984,2.1985]}]]